DW4174 Weather Reports


Display with metric or nautical units.
time (UTC)temp
F
wind
direction
speed
MPH
gust
MPH
rain 1hr
in
rain 24hr
in
rain mn
in
humidity
%
barometer
mb
20260904122227 85 151 2.0 6.0 0.00 0.00 0.00 59 1009.8
20260904121327 85 152 4.0 9.0 0.00 0.00 0.00 59 1009.7
20260904120427 86 152 4.0 9.0 0.00 0.00 0.00 59 1009.7
20260904115527 85 151 4.0 11.0 0.00 0.00 0.00 59 1009.6
20260904114627 86 152 5.0 9.0 0.00 0.00 0.00 58 1009.6
20260904111926 86 150 3.0 8.0 0.00 0.00 0.00 58 1009.6
20260904111026 86 156 4.0 10.0 0.00 0.00 0.00 57 1009.6
20260904110127 86 155 3.0 10.0 0.00 0.00 0.00 57 1009.6
20260904105227 86 155 3.0 9.0 0.00 0.00 0.00 57 1009.6
20260904104327 86 151 2.0 9.0 0.00 0.00 0.00 57 1009.5
20260904103426 86 155 3.0 8.0 0.00 0.00 0.00 57 1009.5
20260904101627 86 145 2.0 9.0 0.00 0.00 0.00 57 1009.4
20260904100726 86 139 0.0 3.0 0.00 0.00 0.00 56 1009.2
20260904095826 86 158 1.0 4.0 0.00 0.00 0.00 56 1009.2
20260904094926 86 150 1.0 7.0 0.00 0.00 0.00 55 1009.2
20260904094026 86 155 1.0 5.0 0.00 0.00 0.00 56 1009.2
20260904093126 86 148 2.0 8.0 0.00 0.00 0.00 55 1009.2
20260904091327 86 151 2.0 6.0 0.00 0.00 0.00 55 1009.2
20260904090426 87 152 1.0 6.0 0.00 0.00 0.00 55 1009.2
20260904084626 87 151 0.0 3.0 0.00 0.00 0.00 55 1009.2
20260904083726 87 158 1.0 4.0 0.00 0.00 0.00 54 1009.2
20260904082826 87 186 0.0 3.0 0.00 0.00 0.00 54 1009.3
20260904081926 87 174 1.0 4.0 0.00 0.00 0.00 53 1009.3
20260904081026 88 160 1.0 4.0 0.00 0.00 0.00 53 1009.4
20260904080126 88 149 2.0 4.0 0.00 0.00 0.00 53 1009.4
20260904075226 88 161 1.0 6.0 0.00 0.00 0.00 52 1009.3
20260904074326 88 171 1.0 6.0 0.00 0.00 0.00 52 1009.3
20260904072526 88 149 1.0 8.0 0.00 0.00 0.00 52 1009.2
20260904070726 88 153 2.0 7.0 0.00 0.00 0.00 53 1009.1
20260904065826 88 166 2.0 10.0 0.00 0.00 0.00 53 1009.0
20260904064926 89 165 2.0 5.0 0.00 0.00 0.00 53 1008.9
20260904064026 89 160 3.0 7.0 0.00 0.00 0.00 52 1008.8
20260904063126 89 154 4.0 10.0 0.00 0.00 0.00 52 1008.8
20260904061326 90 149 4.0 11.0 0.00 0.00 0.00 50 1008.7
20260904060426 90 169 2.0 8.0 0.00 0.00 0.00 49 1008.6
20260904055526 90 177 2.0 7.0 0.00 0.00 0.00 48 1008.7
20260904054626 90 169 3.0 7.0 0.00 0.00 0.00 48 1008.7
20260904053726 90 183 3.0 6.0 0.00 0.00 0.00 48 1008.7
20260904052826 90 189 3.0 8.0 0.00 0.00 0.00 48 1008.6
20260904051926 90 186 3.0 8.0 0.00 0.00 0.00 47 1008.4
20260904051026 90 173 3.0 8.0 0.00 0.00 0.00 47 1008.4
20260904050126 90 184 4.0 8.0 0.00 0.00 0.00 46 1008.4
20260904045226 91 178 4.0 10.0 0.00 0.00 0.00 45 1008.3
20260904044326 91 184 3.0 8.0 0.00 0.00 0.00 44 1008.4
20260904042526 92 194 2.0 7.0 0.00 0.00 0.00 43 1008.4
20260904041626 92 192 2.0 6.0 0.00 0.00 0.00 43 1008.3
20260904040726 92 171 2.0 7.0 0.00 0.00 0.00 42 1008.1
20260904035826 92 178 1.0 4.0 0.00 0.00 0.00 41 1008.0
20260904034026 92 170 2.0 5.0 0.00 0.00 0.00 41 1007.8
20260904033126 92 156 2.0 7.0 0.00 0.00 0.00 42 1007.7
20260904032226 92 124 1.0 5.0 0.00 0.00 0.00 42 1007.5
20260904031326 92 125 2.0 5.0 0.00 0.00 0.00 42 1007.4
20260904030426 92 145 1.0 6.0 0.00 0.00 0.00 42 1007.2
20260904025526 93 131 1.0 6.0 0.00 0.00 0.00 42 1007.1
20260904024626 93 132 2.0 6.0 0.00 0.00 0.00 42 1007.0
20260904022826 93 145 3.0 10.0 0.00 0.00 0.00 41 1006.9
20260904021026 94 155 7.0 12.0 0.00 0.00 0.00 41 1006.9
20260904020126 94 156 7.0 14.0 0.00 0.00 0.00 40 1007.0
20260904014326 94 163 7.0 14.0 0.00 0.00 0.00 39 1007.0
20260904013426 95 166 8.0 18.0 0.00 0.00 0.00 38 1006.9
20260904012526 96 179 7.0 17.0 0.00 0.00 0.00 37 1006.9
20260904011626 98 199 2.0 17.0 0.00 0.00 0.00 34 1006.6
20260904010726 99 181 3.0 7.0 0.00 0.00 0.00 32 1006.5
20260904005826 99 191 4.0 10.0 0.00 0.00 0.00 32 1006.6
20260904004926 99 188 4.0 10.0 0.00 0.00 0.00 31 1006.6
20260904004026 100 197 3.0 8.0 0.00 0.00 0.00 31 1006.6
20260904003126 100 193 2.0 8.0 0.00 0.00 0.00 31 1006.5
20260904002226 100 248 3.0 8.0 0.00 0.00 0.00 30 1006.5
20260904001325 100 201 4.0 7.0 0.00 0.00 0.00 30 1006.6
20260904000426 100 181 3.0 18.0 0.00 0.00 0.00 31 1006.4
20260903235526 100 154 3.0 9.0 0.00 0.00 0.00 30 1006.7
20260903232825 102 155 3.0 10.0 0.00 0.00 0.00 28 1006.8
20260903231926 102 201 3.0 8.0 0.00 0.00 0.00 29 1006.9
20260903231026 102 140 3.0 11.0 0.00 0.00 0.00 29 1007.0
20260903230125 102 192 2.0 6.0 0.00 0.00 0.00 29 1007.1
20260903225225 103 246 3.0 9.0 0.00 0.00 0.00 28 1007.1
20260903224326 103 244 3.0 9.0 0.00 0.00 0.00 28 1007.4
20260903223426 102 46 2.0 5.0 0.00 0.00 0.00 29 1007.5
20260903222525 101 160 4.0 9.0 0.00 0.00 0.00 30 1007.6
20260903221625 101 106 4.0 10.0 0.00 0.00 0.00 30 1007.7
20260903220725 102 215 4.0 11.0 0.00 0.00 0.00 29 1007.8
20260903215825 102 210 4.0 14.0 0.00 0.00 0.00 29 1007.9
20260903214926 103 303 4.0 10.0 0.00 0.00 0.00 28 1008.0
20260903214025 102 218 5.0 10.0 0.00 0.00 0.00 29 1008.3
20260903213125 101 155 4.0 13.0 0.00 0.00 0.00 30 1008.5
20260903212225 102 121 4.0 12.0 0.00 0.00 0.00 30 1008.6
20260903211325 102 137 4.0 10.0 0.00 0.00 0.00 30 1008.7
20260903210425 101 150 3.0 9.0 0.00 0.00 0.00 30 1008.9
20260903205525 102 187 5.0 12.0 0.00 0.00 0.00 29 1009.1
20260903204625 101 157 5.0 9.0 0.00 0.00 0.00 30 1009.2
20260903203725 101 173 5.0 10.0 0.00 0.00 0.00 29 1009.4
20260903202825 101 190 5.0 10.0 0.00 0.00 0.00 30 1009.6
20260903201925 101 177 5.0 13.0 0.00 0.00 0.00 29 1009.7
20260903201025 101 187 4.0 10.0 0.00 0.00 0.00 31 1009.7
20260903200125 101 158 5.0 11.0 0.00 0.00 0.00 30 1009.8
20260903195225 100 150 3.0 9.0 0.00 0.00 0.00 32 1009.9
20260903194325 98 125 3.0 8.0 0.00 0.00 0.00 32 1010.0
20260903193425 99 189 5.0 8.0 0.00 0.00 0.00 33 1010.2
20260903192525 99 128 4.0 12.0 0.00 0.00 0.00 34 1010.3
20260903191625 99 202 4.0 10.0 0.00 0.00 0.00 34 1010.5
20260903190725 98 148 4.0 12.0 0.00 0.00 0.00 34 1010.7
20260903185825 99 141 4.0 11.0 0.00 0.00 0.00 33 1010.8
20260903184025 98 160 4.0 11.0 0.00 0.00 0.00 36 1011.1
20260903182225 97 156 4.0 12.0 0.00 0.00 0.00 36 1011.4
20260903181325 97 149 4.0 9.0 0.00 0.00 0.00 37 1011.6
20260903180425 96 176 4.0 10.0 0.00 0.00 0.00 37 1011.7
20260903175525 97 160 4.0 12.0 0.00 0.00 0.00 38 1011.8
20260903174625 96 168 4.0 11.0 0.00 0.00 0.00 39 1011.9
20260903173725 95 157 4.0 9.0 0.00 0.00 0.00 41 1011.9
20260903172825 95 132 4.0 10.0 0.00 0.00 0.00 39 1011.9
20260903171925 95 127 4.0 12.0 0.00 0.00 0.00 41 1012.0
20260903171025 95 131 4.0 12.0 0.00 0.00 0.00 42 1012.0
20260903170125 93 107 4.0 10.0 0.00 0.00 0.00 44 1012.0
20260903165225 94 142 3.0 10.0 0.00 0.00 0.00 43 1012.0
20260903164325 93 109 3.0 9.0 0.00 0.00 0.00 43 1012.0
20260903163425 93 162 3.0 9.0 0.00 0.00 0.00 44 1012.0
20260903162525 92 142 3.0 8.0 0.00 0.00 0.00 46 1012.1
20260903161625 92 141 3.0 8.0 0.00 0.00 0.00 46 1012.2
20260903155825 91 163 3.0 7.0 0.00 0.00 0.00 49 1012.3
20260903154925 90 168 2.0 9.0 0.00 0.00 0.00 50 1012.3
20260903154025 90 191 2.0 6.0 0.00 0.00 0.00 50 1012.3
20260903153125 89 174 3.0 6.0 0.00 0.00 0.00 52 1012.3
20260903152225 89 162 3.0 6.0 0.00 0.00 0.00 52 1012.3
20260903150425 88 128 2.0 4.0 0.00 0.00 0.00 55 1012.3
20260903145525 87 161 2.0 6.0 0.00 0.00 0.00 56 1012.4
20260903144625 86 144 2.0 5.0 0.00 0.00 0.00 57 1012.4
20260903143725 86 150 1.0 5.0 0.00 0.00 0.00 58 1012.4
20260903142825 85 136 1.0 7.0 0.00 0.00 0.00 59 1012.4
20260903141925 85 102 1.0 6.0 0.00 0.00 0.00 60 1012.3
20260903135225 84 95 0.0 2.0 0.00 0.00 0.00 61 1012.0
20260903134325 84 95 0.0 2.0 0.00 0.00 0.00 61 1011.8
20260903133425 84 95 1.0 2.0 0.00 0.00 0.00 61 1011.7
20260903132525 84 96 1.0 3.0 0.00 0.00 0.00 60 1011.5
20260903131625 84 96 1.0 4.0 0.00 0.00 0.00 60 1011.5
20260903130725 84 97 0.0 4.0 0.00 0.00 0.00 59 1011.4
20260903124925 84 98 2.0 4.0 0.00 0.00 0.00 58 1011.2
20260903124025 84 103 2.0 4.0 0.00 0.00 0.00 57 1011.2
20260903123125 84 111 0.0 6.0 0.00 0.00 0.00 57 1011.1